Time,TemperatureF,DewpointF,PressureIn,WindDirection,WindDirectionDegrees,WindSpeedMPH,WindSpeedGustMPH,Humidity,HourlyPrecipIn,Conditions,Clouds,dailyrainin,SolarRadiationWatts/m^2,SoftwareType,DateUTC
2013-10-21 00:01:00,49.4,44.1,29.76,SW,233,8.0,8.0,82,0.00,,,0.00,0,Wunderground v.1.15,2013-10-21 05:01:00,
2013-10-21 00:07:00,49.2,43.9,29.76,WSW,237,8.0,8.0,82,0.00,,,0.00,0,Wunderground v.1.15,2013-10-21 05:07:00,
2013-10-21 00:12:00,49.1,43.8,29.76,WSW,240,7.0,7.0,82,0.00,,,0.00,0,Wunderground v.1.15,2013-10-21 05:12:00,
2013-10-21 00:17:00,49.0,44.1,29.77,SW,234,7.0,7.0,83,0.00,,,0.00,0,Wunderground v.1.15,2013-10-21 05:17:00,
2013-10-21 00:23:00,48.8,43.9,29.77,WSW,237,7.0,9.0,83,0.00,,,0.00,0,Wunderground v.1.15,2013-10-21 05:23:00,
2013-10-21 00:29:00,48.6,43.7,29.77,SW,236,7.0,9.0,83,0.00,,,0.00,0,Wunderground v.1.15,2013-10-21 05:29:00,
2013-10-21 00:35:00,48.6,43.4,29.78,WSW,250,8.0,10.0,82,0.00,,,0.00,0,Wunderground v.1.15,2013-10-21 05:35:00,
2013-10-21 00:41:00,48.6,43.4,29.78,WSW,252,9.0,9.0,82,0.00,,,0.00,0,Wunderground v.1.15,2013-10-21 05:41:00,
2013-10-21 00:47:00,48.7,43.1,29.78,WSW,248,10.0,12.0,81,0.00,,,0.00,0,Wunderground v.1.15,2013-10-21 05:47:00,
2013-10-21 00:52:00,48.6,43.0,29.78,WSW,246,10.0,10.0,81,0.00,,,0.00,0,Wunderground v.1.15,2013-10-21 05:52:00,
2013-10-21 00:58:00,48.7,43.1,29.78,WSW,243,10.0,12.0,81,0.00,,,0.00,0,Wunderground v.1.15,2013-10-21 05:58:00,
2013-10-21 01:04:00,48.7,43.1,29.78,WSW,238,10.0,13.0,81,0.00,,,0.00,0,Wunderground v.1.15,2013-10-21 06:04:00,
2013-10-21 01:09:00,48.7,42.8,29.78,WSW,238,10.0,14.0,80,0.00,,,0.00,0,Wunderground v.1.15,2013-10-21 06:09:00,
2013-10-21 01:15:00,48.6,43.0,29.78,WSW,246,11.0,12.0,81,0.00,,,0.00,0,Wunderground v.1.15,2013-10-21 06:15:00,
2013-10-21 01:21:00,48.5,43.3,29.78,SW,236,9.0,9.0,82,0.00,,,0.00,0,Wunderground v.1.15,2013-10-21 06:21:00,
2013-10-21 01:27:00,48.4,43.2,29.78,WSW,242,8.0,9.0,82,0.00,,,0.00,0,Wunderground v.1.15,2013-10-21 06:27:00,
2013-10-21 01:32:00,48.4,43.2,29.78,SW,236,8.0,10.0,82,0.00,,,0.00,0,Wunderground v.1.15,2013-10-21 06:32:00,
2013-10-21 01:38:00,48.2,43.0,29.78,West,263,9.0,10.0,82,0.00,,,0.00,0,Wunderground v.1.15,2013-10-21 06:38:00,
2013-10-21 01:43:00,48.1,42.9,29.78,WSW,255,9.0,10.0,82,0.00,,,0.00,0,Wunderground v.1.15,2013-10-21 06:43:00,
2013-10-21 01:49:00,48.0,42.8,29.79,WSW,243,9.0,12.0,82,0.00,,,0.00,0,Wunderground v.1.15,2013-10-21 06:49:00,
2013-10-21 01:55:00,47.8,42.6,29.79,WSW,242,9.0,10.0,82,0.00,,,0.00,0,Wunderground v.1.15,2013-10-21 06:55:00,
2013-10-21 02:01:00,47.8,42.6,29.79,WSW,248,10.0,11.0,82,0.00,,,0.00,0,Wunderground v.1.15,2013-10-21 07:01:00,
2013-10-21 02:07:00,47.6,42.4,29.79,West,261,10.0,11.0,82,0.00,,,0.00,0,Wunderground v.1.15,2013-10-21 07:07:00,
2013-10-21 02:13:00,47.5,42.3,29.79,SW,234,10.0,10.0,82,0.00,,,0.00,0,Wunderground v.1.15,2013-10-21 07:13:00,
2013-10-21 02:19:00,47.3,42.1,29.79,WSW,237,10.0,12.0,82,0.00,,,0.00,0,Wunderground v.1.15,2013-10-21 07:19:00,
2013-10-21 02:25:00,47.1,41.9,29.79,WSW,242,10.0,13.0,82,0.00,,,0.00,0,Wunderground v.1.15,2013-10-21 07:25:00,
2013-10-21 02:31:00,47.0,42.1,29.80,WSW,254,10.0,10.0,83,0.00,,,0.00,0,Wunderground v.1.15,2013-10-21 07:31:00,
2013-10-21 02:37:00,46.8,41.6,29.80,WSW,244,9.0,10.0,82,0.00,,,0.00,0,Wunderground v.1.15,2013-10-21 07:37:00,
2013-10-21 02:43:00,46.6,41.7,29.80,WSW,256,9.0,10.0,83,0.00,,,0.01,0,Wunderground v.1.15,2013-10-21 07:43:00,
2013-10-21 02:49:00,46.5,41.6,29.80,WSW,254,9.0,13.0,83,0.00,,,0.01,0,Wunderground v.1.15,2013-10-21 07:49:00,
2013-10-21 02:54:00,46.3,41.4,29.80,WSW,254,9.0,9.0,83,0.00,,,0.01,0,Wunderground v.1.15,2013-10-21 07:54:00,
2013-10-21 02:59:00,46.2,41.3,29.80,WSW,252,9.0,11.0,83,0.00,,,0.01,0,Wunderground v.1.15,2013-10-21 07:59:00,
2013-10-21 03:05:00,46.0,41.1,29.80,WSW,246,9.0,12.0,83,0.00,,,0.01,0,Wunderground v.1.15,2013-10-21 08:05:00,
2013-10-21 03:10:00,45.9,41.3,29.80,WSW,257,9.0,12.0,84,0.00,,,0.01,0,Wunderground v.1.15,2013-10-21 08:10:00,
2013-10-21 03:16:00,45.7,41.1,29.81,WSW,242,9.0,11.0,84,0.00,,,0.01,0,Wunderground v.1.15,2013-10-21 08:16:00,
2013-10-21 03:22:00,45.4,40.8,29.81,WSW,246,9.0,9.0,84,0.00,,,0.01,0,Wunderground v.1.15,2013-10-21 08:22:00,
2013-10-21 03:28:00,45.2,40.7,29.81,West,261,9.0,12.0,84,0.00,,,0.01,0,Wunderground v.1.15,2013-10-21 08:28:00,
2013-10-21 03:33:00,45.1,40.6,29.81,WSW,254,9.0,10.0,84,0.00,,,0.01,0,Wunderground v.1.15,2013-10-21 08:33:00,
2013-10-21 03:39:00,44.9,40.4,29.81,WSW,243,9.0,10.0,84,0.00,,,0.01,0,Wunderground v.1.15,2013-10-21 08:39:00,
2013-10-21 03:44:00,45.0,40.5,29.81,WSW,245,9.0,13.0,84,0.00,,,0.01,0,Wunderground v.1.15,2013-10-21 08:44:00,
2013-10-21 03:50:00,45.0,40.5,29.81,WSW,248,10.0,16.0,84,0.00,,,0.01,0,Wunderground v.1.15,2013-10-21 08:50:00,
2013-10-21 03:55:00,45.1,40.2,29.81,WSW,246,10.0,13.0,83,0.00,,,0.01,0,Wunderground v.1.15,2013-10-21 08:55:00,
2013-10-21 04:01:00,45.2,40.3,29.82,WSW,247,10.0,12.0,83,0.00,,,0.01,0,Wunderground v.1.15,2013-10-21 09:01:00,
2013-10-21 04:07:00,45.1,40.2,29.82,WNW,302,10.0,14.0,83,0.00,,,0.01,0,Wunderground v.1.15,2013-10-21 09:07:00,
2013-10-21 04:12:00,45.1,39.9,29.82,West,268,11.0,11.0,82,0.00,,,0.01,0,Wunderground v.1.15,2013-10-21 09:12:00,
2013-10-21 04:18:00,44.7,38.9,29.83,WNW,292,11.0,16.0,80,0.00,,,0.01,0,Wunderground v.1.15,2013-10-21 09:18:00,
2013-10-21 04:24:00,43.7,36.6,29.83,WNW,284,14.0,18.0,76,0.00,,,0.01,0,Wunderground v.1.15,2013-10-21 09:24:00,
2013-10-21 04:29:00,43.1,36.4,29.83,WNW,293,15.0,18.0,77,0.00,,,0.01,0,Wunderground v.1.15,2013-10-21 09:29:00,
2013-10-21 04:34:00,42.9,36.2,29.84,WNW,288,14.0,15.0,77,0.00,,,0.01,0,Wunderground v.1.15,2013-10-21 09:34:00,
2013-10-21 04:39:00,42.6,35.9,29.84,WNW,300,13.0,16.0,77,0.00,,,0.01,0,Wunderground v.1.15,2013-10-21 09:39:00,
2013-10-21 04:45:00,42.3,35.6,29.85,NW,304,12.0,13.0,77,0.00,,,0.01,0,Wunderground v.1.15,2013-10-21 09:45:00,
2013-10-21 04:51:00,42.2,35.5,29.85,WNW,292,10.0,10.0,77,0.00,,,0.01,0,Wunderground v.1.15,2013-10-21 09:51:00,
2013-10-21 04:57:00,42.0,35.3,29.85,West,280,10.0,12.0,77,0.00,,,0.01,0,Wunderground v.1.15,2013-10-21 09:57:00,
2013-10-21 05:02:00,41.9,35.2,29.86,WSW,256,10.0,10.0,77,0.00,,,0.01,0,Wunderground v.1.15,2013-10-21 10:02:00,
2013-10-21 05:08:00,41.9,35.5,29.86,West,262,8.0,10.0,78,0.00,,,0.01,0,Wunderground v.1.15,2013-10-21 10:08:00,
2013-10-21 05:13:00,41.8,35.4,29.86,West,279,7.0,8.0,78,0.00,,,0.01,0,Wunderground v.1.15,2013-10-21 10:13:00,
2013-10-21 05:19:00,41.7,35.3,29.86,West,261,8.0,11.0,78,0.00,,,0.01,0,Wunderground v.1.15,2013-10-21 10:19:00,
2013-10-21 05:25:00,41.7,35.3,29.86,WSW,255,8.0,9.0,78,0.00,,,0.01,0,Wunderground v.1.15,2013-10-21 10:25:00,
2013-10-21 05:30:00,41.6,35.2,29.86,West,263,7.0,9.0,78,0.00,,,0.01,0,Wunderground v.1.15,2013-10-21 10:30:00,
2013-10-21 05:35:00,41.7,35.3,29.86,WSW,245,8.0,10.0,78,0.00,,,0.01,0,Wunderground v.1.15,2013-10-21 10:35:00,
2013-10-21 05:41:00,41.7,35.7,29.86,West,272,8.0,13.0,79,0.00,,,0.01,0,Wunderground v.1.15,2013-10-21 10:41:00,
2013-10-21 05:46:00,41.5,35.2,29.87,West,273,9.0,13.0,78,0.00,,,0.01,0,Wunderground v.1.15,2013-10-21 10:46:00,
2013-10-21 05:52:00,41.3,35.0,29.87,NW,313,10.0,10.0,78,0.00,,,0.01,0,Wunderground v.1.15,2013-10-21 10:52:00,
2013-10-21 05:57:00,41.1,34.1,29.87,West,265,11.0,17.0,76,0.00,,,0.01,0,Wunderground v.1.15,2013-10-21 10:57:00,
2013-10-21 06:03:00,41.0,34.7,29.87,West,269,9.0,10.0,78,0.00,,,0.01,0,Wunderground v.1.15,2013-10-21 11:03:00,
2013-10-21 06:09:00,40.8,34.1,29.87,WNW,298,9.0,16.0,77,0.00,,,0.01,0,Wunderground v.1.15,2013-10-21 11:09:00,
2013-10-21 06:14:00,40.7,34.0,29.87,West,277,10.0,12.0,77,0.00,,,0.01,0,Wunderground v.1.15,2013-10-21 11:14:00,
2013-10-21 06:20:00,40.6,34.0,29.88,West,273,9.0,12.0,77,0.00,,,0.01,0,Wunderground v.1.15,2013-10-21 11:20:00,
2013-10-21 06:26:00,40.4,33.8,29.88,WNW,285,9.0,12.0,77,0.00,,,0.01,0,Wunderground v.1.15,2013-10-21 11:26:00,
2013-10-21 06:32:00,40.4,34.1,29.88,WNW,292,8.0,9.0,78,0.00,,,0.01,0,Wunderground v.1.15,2013-10-21 11:32:00,
2013-10-21 06:38:00,40.3,33.7,29.88,WNW,292,7.0,10.0,77,0.00,,,0.01,0,Wunderground v.1.15,2013-10-21 11:38:00,
2013-10-21 06:43:00,40.1,33.1,29.88,West,279,6.0,7.0,76,0.00,,,0.01,0,Wunderground v.1.15,2013-10-21 11:43:00,
2013-10-21 06:49:00,40.1,33.5,29.89,West,273,5.0,7.0,77,0.00,,,0.01,0,Wunderground v.1.15,2013-10-21 11:49:00,
2013-10-21 06:55:00,40.0,33.0,29.89,West,259,6.0,13.0,76,0.00,,,0.01,0,Wunderground v.1.15,2013-10-21 11:55:00,
2013-10-21 07:01:00,39.9,32.9,29.89,West,275,9.0,9.0,76,0.00,,,0.01,0,Wunderground v.1.15,2013-10-21 12:01:00,
2013-10-21 07:07:00,39.9,32.9,29.89,WSW,248,9.0,13.0,76,0.00,,,0.01,0,Wunderground v.1.15,2013-10-21 12:07:00,
2013-10-21 07:13:00,39.7,32.8,29.89,West,262,8.0,10.0,76,0.00,,,0.01,0,Wunderground v.1.15,2013-10-21 12:13:00,
2013-10-21 07:19:00,39.8,32.8,29.89,West,267,7.0,12.0,76,0.00,,,0.01,0,Wunderground v.1.15,2013-10-21 12:19:00,
2013-10-21 07:25:00,39.8,32.5,29.89,West,265,7.0,10.0,75,0.00,,,0.01,0,Wunderground v.1.15,2013-10-21 12:25:00,
2013-10-21 07:30:00,39.7,32.4,29.90,WNW,284,7.0,10.0,75,0.00,,,0.01,5,Wunderground v.1.15,2013-10-21 12:30:00,
2013-10-21 07:36:00,39.8,32.8,29.90,West,274,6.0,7.0,76,0.00,,,0.01,5,Wunderground v.1.15,2013-10-21 12:36:00,
2013-10-21 07:41:00,39.8,32.5,29.90,West,278,5.0,6.0,75,0.00,,,0.01,11,Wunderground v.1.15,2013-10-21 12:41:00,
2013-10-21 07:47:00,39.8,32.8,29.90,West,280,5.0,7.0,76,0.00,,,0.01,16,Wunderground v.1.15,2013-10-21 12:47:00,
2013-10-21 07:52:00,39.8,32.8,29.90,WNW,282,5.0,5.0,76,0.00,,,0.01,21,Wunderground v.1.15,2013-10-21 12:52:00,
2013-10-21 07:58:00,40.0,33.0,29.90,West,269,5.0,7.0,76,0.00,,,0.01,23,Wunderground v.1.15,2013-10-21 12:58:00,
2013-10-21 08:04:00,39.9,31.9,29.90,WNW,284,6.0,8.0,73,0.00,,,0.01,28,Wunderground v.1.15,2013-10-21 13:04:00,
2013-10-21 08:09:00,40.1,32.1,29.90,West,279,8.0,14.0,73,0.00,,,0.01,33,Wunderground v.1.15,2013-10-21 13:09:00,
2013-10-21 08:14:00,40.1,32.1,29.90,West,270,9.0,10.0,73,0.00,,,0.01,37,Wunderground v.1.15,2013-10-21 13:14:00,
2013-10-21 08:20:00,40.2,32.6,29.91,West,275,7.0,10.0,74,0.00,,,0.01,49,Wunderground v.1.15,2013-10-21 13:20:00,
2013-10-21 08:25:00,40.1,31.8,29.91,West,279,6.0,8.0,72,0.00,,,0.01,51,Wunderground v.1.15,2013-10-21 13:25:00,
2013-10-21 08:31:00,40.1,31.8,29.91,West,278,7.0,7.0,72,0.00,,,0.01,60,Wunderground v.1.15,2013-10-21 13:31:00,
2013-10-21 08:37:00,40.2,32.6,29.91,WNW,287,6.0,7.0,74,0.00,,,0.01,70,Wunderground v.1.15,2013-10-21 13:37:00,
2013-10-21 08:42:00,40.2,32.2,29.91,West,262,6.0,6.0,73,0.00,,,0.01,90,Wunderground v.1.15,2013-10-21 13:42:00,
2013-10-21 08:48:00,40.4,32.4,29.91,West,259,6.0,14.0,73,0.00,,,0.01,74,Wunderground v.1.15,2013-10-21 13:48:00,
2013-10-21 08:53:00,40.4,32.4,29.91,West,267,8.0,15.0,73,0.00,,,0.01,79,Wunderground v.1.15,2013-10-21 13:53:00,
2013-10-21 08:59:00,40.4,32.4,29.91,West,271,7.0,15.0,73,0.00,,,0.01,179,Wunderground v.1.15,2013-10-21 13:59:00,
2013-10-21 09:04:00,40.4,32.1,29.92,West,266,6.0,8.0,72,0.00,,,0.01,287,Wunderground v.1.15,2013-10-21 14:04:00,
2013-10-21 09:10:00,40.8,32.5,29.92,West,263,7.0,12.0,72,0.00,,,0.01,318,Wunderground v.1.15,2013-10-21 14:10:00,
2013-10-21 09:16:00,40.8,32.1,29.91,WNW,287,9.0,14.0,71,0.00,,,0.01,338,Wunderground v.1.15,2013-10-21 14:16:00,
2013-10-21 09:21:00,40.7,31.3,29.91,NW,319,11.0,17.0,69,0.00,,,0.01,234,Wunderground v.1.15,2013-10-21 14:21:00,
2013-10-21 09:26:00,40.8,31.8,29.91,NW,308,12.0,15.0,70,0.00,,,0.01,97,Wunderground v.1.15,2013-10-21 14:26:00,
2013-10-21 09:32:00,40.9,31.9,29.92,WSW,256,9.0,9.0,70,0.00,,,0.01,413,Wunderground v.1.15,2013-10-21 14:32:00,
2013-10-21 09:37:00,40.9,31.1,29.92,WNW,302,9.0,14.0,68,0.00,,,0.01,163,Wunderground v.1.15,2013-10-21 14:37:00,
2013-10-21 09:42:00,40.8,31.8,29.92,WNW,282,11.0,11.0,70,0.00,,,0.01,135,Wunderground v.1.15,2013-10-21 14:42:00,
2013-10-21 09:48:00,40.7,31.0,29.92,NW,310,11.0,13.0,68,0.00,,,0.01,160,Wunderground v.1.15,2013-10-21 14:48:00,
2013-10-21 09:54:00,41.0,31.6,29.92,West,280,10.0,11.0,69,0.00,,,0.01,195,Wunderground v.1.15,2013-10-21 14:54:00,
2013-10-21 09:59:00,41.0,31.6,29.92,West,281,9.0,11.0,69,0.00,,,0.01,134,Wunderground v.1.15,2013-10-21 14:59:00,
2013-10-21 10:05:00,41.2,31.8,29.91,West,264,9.0,13.0,69,0.00,,,0.01,209,Wunderground v.1.15,2013-10-21 15:05:00,
2013-10-21 10:11:00,41.2,31.8,29.91,WNW,286,10.0,11.0,69,0.00,,,0.01,176,Wunderground v.1.15,2013-10-21 15:11:00,
2013-10-21 10:16:00,41.2,31.8,29.91,WNW,292,10.0,11.0,69,0.00,,,0.01,181,Wunderground v.1.15,2013-10-21 15:16:00,
2013-10-21 10:22:00,41.2,32.2,29.91,West,271,9.0,10.0,70,0.00,,,0.01,190,Wunderground v.1.15,2013-10-21 15:22:00,
2013-10-21 10:27:00,41.4,32.3,29.91,NW,308,8.0,12.0,70,0.00,,,0.01,183,Wunderground v.1.15,2013-10-21 15:27:00,
2013-10-21 10:33:00,41.5,32.8,29.91,West,263,8.0,12.0,71,0.00,,,0.01,181,Wunderground v.1.15,2013-10-21 15:33:00,
2013-10-21 10:39:00,41.5,33.1,29.91,WNW,302,8.0,12.0,72,0.00,,,0.01,137,Wunderground v.1.15,2013-10-21 15:39:00,
2013-10-21 10:44:00,41.2,33.2,29.91,West,271,10.0,14.0,73,0.00,,,0.01,142,Wunderground v.1.15,2013-10-21 15:44:00,
2013-10-21 10:50:00,41.3,33.3,29.91,West,274,11.0,14.0,73,0.00,,,0.01,220,Wunderground v.1.15,2013-10-21 15:50:00,
2013-10-21 10:56:00,41.4,33.0,29.91,WSW,257,10.0,11.0,72,0.00,,,0.01,257,Wunderground v.1.15,2013-10-21 15:56:00,
2013-10-21 11:01:00,41.5,33.1,29.91,WSW,239,10.0,11.0,72,0.00,,,0.01,211,Wunderground v.1.15,2013-10-21 16:01:00,
2013-10-21 11:07:00,41.6,33.2,29.91,WSW,238,11.0,14.0,72,0.00,,,0.01,179,Wunderground v.1.15,2013-10-21 16:07:00,
2013-10-21 11:13:00,41.9,33.2,29.91,WSW,250,10.0,11.0,71,0.00,,,0.01,220,Wunderground v.1.15,2013-10-21 16:13:00,
2013-10-21 11:18:00,42.1,33.7,29.91,West,271,11.0,15.0,72,0.00,,,0.01,223,Wunderground v.1.15,2013-10-21 16:18:00,
2013-10-21 11:24:00,42.0,32.9,29.91,West,275,10.0,12.0,70,0.00,,,0.01,84,Wunderground v.1.15,2013-10-21 16:24:00,
2013-10-21 11:29:00,42.0,33.3,29.91,West,261,9.0,12.0,71,0.00,,,0.01,132,Wunderground v.1.15,2013-10-21 16:29:00,
2013-10-21 11:35:00,41.9,33.2,29.91,West,281,11.0,16.0,71,0.00,,,0.01,102,Wunderground v.1.15,2013-10-21 16:35:00,
2013-10-21 11:40:00,41.8,33.4,29.91,West,281,12.0,16.0,72,0.00,,,0.01,213,Wunderground v.1.15,2013-10-21 16:40:00,
2013-10-21 11:46:00,41.9,33.2,29.90,WSW,246,11.0,14.0,71,0.00,,,0.01,253,Wunderground v.1.15,2013-10-21 16:46:00,
2013-10-21 11:51:00,42.0,32.9,29.90,West,275,10.0,10.0,70,0.00,,,0.01,239,Wunderground v.1.15,2013-10-21 16:51:00,
2013-10-21 11:56:00,42.3,33.6,29.90,SW,234,9.0,12.0,71,0.00,,,0.01,202,Wunderground v.1.15,2013-10-21 16:56:00,
2013-10-21 12:01:00,42.3,32.5,29.90,West,259,10.0,10.0,68,0.00,,,0.01,158,Wunderground v.1.15,2013-10-21 17:01:00,
2013-10-21 12:07:00,42.4,32.9,29.90,WNW,283,11.0,12.0,69,0.00,,,0.01,137,Wunderground v.1.15,2013-10-21 17:07:00,
2013-10-21 12:12:00,42.4,33.3,29.90,WNW,290,9.0,10.0,70,0.00,,,0.01,162,Wunderground v.1.15,2013-10-21 17:12:00,
2013-10-21 12:18:00,42.4,34.4,29.90,WNW,302,8.0,12.0,73,0.00,,,0.01,227,Wunderground v.1.15,2013-10-21 17:18:00,
2013-10-21 12:23:00,42.1,33.0,29.90,WNW,297,9.0,10.0,70,0.00,,,0.01,162,Wunderground v.1.15,2013-10-21 17:23:00,
2013-10-21 12:29:00,41.9,32.8,29.90,West,273,10.0,12.0,70,0.00,,,0.01,104,Wunderground v.1.15,2013-10-21 17:29:00,
2013-10-21 12:34:00,42.0,33.6,29.90,West,272,9.0,9.0,72,0.00,,,0.01,123,Wunderground v.1.15,2013-10-21 17:34:00,
2013-10-21 12:40:00,42.0,33.6,29.90,WNW,298,8.0,9.0,72,0.00,,,0.01,292,Wunderground v.1.15,2013-10-21 17:40:00,
2013-10-21 12:45:00,41.8,33.1,29.90,West,267,8.0,10.0,71,0.00,,,0.01,190,Wunderground v.1.15,2013-10-21 17:45:00,
2013-10-21 12:51:00,41.8,33.4,29.90,WNW,288,8.0,8.0,72,0.00,,,0.01,102,Wunderground v.1.15,2013-10-21 17:51:00,
2013-10-21 12:56:00,41.7,33.0,29.90,WNW,291,8.0,12.0,71,0.00,,,0.01,251,Wunderground v.1.15,2013-10-21 17:56:00,
2013-10-21 13:01:00,42.0,33.3,29.90,West,273,8.0,8.0,71,0.00,,,0.01,260,Wunderground v.1.15,2013-10-21 18:01:00,
2013-10-21 13:07:00,42.2,32.4,29.90,WSW,246,8.0,12.0,68,0.00,,,0.01,200,Wunderground v.1.15,2013-10-21 18:07:00,
2013-10-21 13:13:00,42.2,31.6,29.90,WSW,237,9.0,13.0,66,0.00,,,0.01,134,Wunderground v.1.15,2013-10-21 18:13:00,
2013-10-21 13:19:00,42.5,30.8,29.89,West,270,10.0,16.0,63,0.00,,,0.01,188,Wunderground v.1.15,2013-10-21 18:19:00,
2013-10-21 13:24:00,42.4,30.7,29.89,WSW,257,12.0,13.0,63,0.00,,,0.01,186,Wunderground v.1.15,2013-10-21 18:24:00,
2013-10-21 13:30:00,42.4,31.1,29.89,WSW,244,12.0,18.0,64,0.00,,,0.01,237,Wunderground v.1.15,2013-10-21 18:30:00,
2013-10-21 13:36:00,42.5,31.2,29.89,West,262,10.0,14.0,64,0.00,,,0.01,193,Wunderground v.1.15,2013-10-21 18:36:00,
2013-10-21 13:42:00,42.5,31.6,29.89,West,264,10.0,13.0,65,0.00,,,0.01,267,Wunderground v.1.15,2013-10-21 18:42:00,
2013-10-21 13:47:00,42.1,31.6,29.89,West,265,12.0,15.0,66,0.00,,,0.01,193,Wunderground v.1.15,2013-10-21 18:47:00,
2013-10-21 13:53:00,41.6,31.8,29.89,West,273,14.0,19.0,68,0.00,,,0.01,142,Wunderground v.1.15,2013-10-21 18:53:00,
2013-10-21 13:58:00,41.4,31.3,29.89,West,262,14.0,19.0,67,0.00,,,0.01,111,Wunderground v.1.15,2013-10-21 18:58:00,
2013-10-21 14:03:00,41.3,31.5,29.89,West,271,13.0,15.0,68,0.00,,,0.01,118,Wunderground v.1.15,2013-10-21 19:03:00,
2013-10-21 14:09:00,41.2,31.4,29.89,West,263,13.0,15.0,68,0.00,,,0.01,186,Wunderground v.1.15,2013-10-21 19:09:00,
2013-10-21 14:15:00,41.3,32.2,29.89,WNW,286,12.0,13.0,70,0.00,,,0.01,216,Wunderground v.1.15,2013-10-21 19:15:00,
2013-10-21 14:20:00,41.2,32.2,29.89,West,269,11.0,15.0,70,0.00,,,0.01,211,Wunderground v.1.15,2013-10-21 19:20:00,
2013-10-21 14:25:00,41.3,31.9,29.89,WNW,290,11.0,15.0,69,0.00,,,0.01,237,Wunderground v.1.15,2013-10-21 19:25:00,
2013-10-21 14:31:00,41.0,31.2,29.89,West,267,13.0,13.0,68,0.00,,,0.01,251,Wunderground v.1.15,2013-10-21 19:31:00,
2013-10-21 14:37:00,40.9,30.8,29.89,West,276,14.0,17.0,67,0.00,,,0.01,239,Wunderground v.1.15,2013-10-21 19:37:00,
2013-10-21 14:42:00,40.9,30.4,29.89,West,263,15.0,15.0,66,0.00,,,0.01,239,Wunderground v.1.15,2013-10-21 19:42:00,
2013-10-21 14:48:00,41.1,30.6,29.89,WNW,282,13.0,15.0,66,0.00,,,0.01,197,Wunderground v.1.15,2013-10-21 19:48:00,
2013-10-21 14:53:00,41.1,31.3,29.89,West,280,11.0,12.0,68,0.00,,,0.01,155,Wunderground v.1.15,2013-10-21 19:53:00,
2013-10-21 14:59:00,40.8,30.3,29.89,West,272,11.0,13.0,66,0.00,,,0.01,127,Wunderground v.1.15,2013-10-21 19:59:00,
2013-10-21 15:05:00,40.8,30.7,29.89,WNW,303,12.0,13.0,67,0.00,,,0.01,135,Wunderground v.1.15,2013-10-21 20:05:00,
2013-10-21 15:10:00,40.7,29.5,29.89,West,281,12.0,15.0,64,0.00,,,0.01,128,Wunderground v.1.15,2013-10-21 20:10:00,
2013-10-21 15:16:00,40.5,28.9,29.90,WSW,253,11.0,14.0,63,0.00,,,0.01,160,Wunderground v.1.15,2013-10-21 20:16:00,
2013-10-21 15:22:00,40.7,29.1,29.90,WNW,284,12.0,12.0,63,0.00,,,0.01,195,Wunderground v.1.15,2013-10-21 20:22:00,
2013-10-21 15:27:00,40.7,28.7,29.90,WSW,242,12.0,12.0,62,0.00,,,0.01,204,Wunderground v.1.15,2013-10-21 20:27:00,
2013-10-21 15:33:00,40.4,27.6,29.90,WSW,242,12.0,12.0,60,0.00,,,0.01,179,Wunderground v.1.15,2013-10-21 20:33:00,
2013-10-21 15:39:00,40.5,26.9,29.90,West,271,12.0,13.0,58,0.00,,,0.01,174,Wunderground v.1.15,2013-10-21 20:39:00,
2013-10-21 15:44:00,40.6,27.4,29.90,West,270,12.0,16.0,59,0.00,,,0.01,132,Wunderground v.1.15,2013-10-21 20:44:00,
2013-10-21 15:50:00,40.2,27.4,29.91,West,269,13.0,18.0,60,0.00,,,0.01,113,Wunderground v.1.15,2013-10-21 20:50:00,
2013-10-21 15:56:00,40.1,28.5,29.91,West,281,12.0,13.0,63,0.00,,,0.01,93,Wunderground v.1.15,2013-10-21 20:56:00,
2013-10-21 16:01:00,39.9,27.5,29.91,West,270,12.0,15.0,61,0.00,,,0.01,102,Wunderground v.1.15,2013-10-21 21:01:00,
2013-10-21 16:07:00,39.7,27.3,29.91,WNW,294,12.0,15.0,61,0.00,,,0.01,102,Wunderground v.1.15,2013-10-21 21:07:00,
2013-10-21 16:12:00,39.6,27.2,29.91,WSW,252,11.0,12.0,61,0.00,,,0.01,111,Wunderground v.1.15,2013-10-21 21:12:00,
2013-10-21 16:17:00,39.5,26.8,29.92,West,262,12.0,15.0,60,0.00,,,0.01,141,Wunderground v.1.15,2013-10-21 21:17:00,
2013-10-21 16:23:00,39.4,25.8,29.92,WSW,250,12.0,15.0,58,0.00,,,0.01,84,Wunderground v.1.15,2013-10-21 21:23:00,
2013-10-21 16:29:00,39.3,26.2,29.92,WSW,242,12.0,15.0,59,0.00,,,0.01,67,Wunderground v.1.15,2013-10-21 21:29:00,
2013-10-21 16:34:00,39.2,26.9,29.92,West,275,13.0,14.0,61,0.00,,,0.01,69,Wunderground v.1.15,2013-10-21 21:34:00,
2013-10-21 16:40:00,39.2,27.3,29.92,West,267,11.0,14.0,62,0.00,,,0.01,81,Wunderground v.1.15,2013-10-21 21:40:00,
2013-10-21 16:45:00,39.1,26.0,29.93,West,267,11.0,12.0,59,0.00,,,0.01,72,Wunderground v.1.15,2013-10-21 21:45:00,
2013-10-21 16:51:00,38.8,25.7,29.93,WSW,243,12.0,12.0,59,0.00,,,0.01,49,Wunderground v.1.15,2013-10-21 21:51:00,
2013-10-21 16:57:00,38.8,25.7,29.93,West,267,12.0,15.0,59,0.00,,,0.01,46,Wunderground v.1.15,2013-10-21 21:57:00,
2013-10-21 17:03:00,38.8,25.7,29.93,West,259,11.0,11.0,59,0.00,,,0.01,35,Wunderground v.1.15,2013-10-21 22:03:00,
2013-10-21 17:09:00,38.8,26.1,29.93,West,262,10.0,12.0,60,0.00,,,0.01,35,Wunderground v.1.15,2013-10-21 22:09:00,
2013-10-21 17:15:00,38.8,25.7,29.94,WSW,254,9.0,10.0,59,0.00,,,0.01,33,Wunderground v.1.15,2013-10-21 22:15:00,
2013-10-21 17:20:00,38.9,26.2,29.94,West,275,9.0,15.0,60,0.00,,,0.01,30,Wunderground v.1.15,2013-10-21 22:20:00,
2013-10-21 17:26:00,38.9,25.4,29.94,West,271,10.0,11.0,58,0.00,,,0.01,37,Wunderground v.1.15,2013-10-21 22:26:00,
2013-10-21 17:31:00,38.9,25.8,29.94,WNW,285,8.0,9.0,59,0.00,,,0.01,42,Wunderground v.1.15,2013-10-21 22:31:00,
2013-10-21 17:37:00,38.9,26.6,29.94,WSW,254,9.0,12.0,61,0.00,,,0.01,18,Wunderground v.1.15,2013-10-21 22:37:00,
2013-10-21 17:42:00,38.8,26.1,29.94,WSW,245,9.0,10.0,60,0.00,,,0.01,12,Wunderground v.1.15,2013-10-21 22:42:00,
2013-10-21 17:48:00,38.8,26.5,29.94,West,270,9.0,11.0,61,0.00,,,0.01,7,Wunderground v.1.15,2013-10-21 22:48:00,
2013-10-21 17:54:00,38.8,25.3,29.94,West,274,8.0,11.0,58,0.00,,,0.01,5,Wunderground v.1.15,2013-10-21 22:54:00,
2013-10-21 18:00:00,38.7,26.0,29.95,West,280,8.0,11.0,60,0.00,,,0.01,0,Wunderground v.1.15,2013-10-21 23:00:00,
2013-10-21 18:05:00,38.8,26.1,29.95,West,271,7.0,8.0,60,0.00,,,0.01,0,Wunderground v.1.15,2013-10-21 23:05:00,
2013-10-21 18:11:00,38.7,26.4,29.95,West,262,6.0,6.0,61,0.00,,,0.01,0,Wunderground v.1.15,2013-10-21 23:11:00,
2013-10-21 18:16:00,38.6,26.7,29.95,West,273,5.0,6.0,62,0.00,,,0.01,0,Wunderground v.1.15,2013-10-21 23:16:00,
2013-10-21 18:22:00,38.7,26.8,29.95,West,261,5.0,5.0,62,0.00,,,0.01,0,Wunderground v.1.15,2013-10-21 23:22:00,
2013-10-21 18:28:00,38.6,26.7,29.95,WSW,250,4.0,7.0,62,0.00,,,0.01,0,Wunderground v.1.15,2013-10-21 23:28:00,
2013-10-21 18:33:00,38.4,26.5,29.95,WSW,246,4.0,5.0,62,0.00,,,0.01,0,Wunderground v.1.15,2013-10-21 23:33:00,
2013-10-21 18:38:00,38.4,26.9,29.95,WSW,251,4.0,5.0,63,0.00,,,0.01,0,Wunderground v.1.15,2013-10-21 23:38:00,
2013-10-21 18:43:00,38.4,26.9,29.95,West,264,4.0,4.0,63,0.00,,,0.01,0,Wunderground v.1.15,2013-10-21 23:43:00,
2013-10-21 18:49:00,38.4,27.3,29.95,WSW,250,5.0,6.0,64,0.00,,,0.01,0,Wunderground v.1.15,2013-10-21 23:49:00,
2013-10-21 18:55:00,38.4,27.3,29.95,SW,234,5.0,7.0,64,0.00,,,0.01,0,Wunderground v.1.15,2013-10-21 23:55:00,
2013-10-21 19:01:00,38.4,27.7,29.95,WSW,250,5.0,5.0,65,0.00,,,0.01,0,Wunderground v.1.15,2013-10-22 00:01:00,
2013-10-21 19:07:00,38.3,27.6,29.95,WSW,242,5.0,6.0,65,0.00,,,0.01,0,Wunderground v.1.15,2013-10-22 00:07:00,
2013-10-21 19:13:00,38.2,26.7,29.95,WSW,244,5.0,6.0,63,0.00,,,0.01,0,Wunderground v.1.15,2013-10-22 00:13:00,
2013-10-21 19:19:00,38.2,27.1,29.96,WSW,243,4.0,6.0,64,0.00,,,0.01,0,Wunderground v.1.15,2013-10-22 00:19:00,
2013-10-21 19:25:00,38.2,28.2,29.96,WSW,250,4.0,5.0,67,0.00,,,0.01,0,Wunderground v.1.15,2013-10-22 00:25:00,
2013-10-21 19:31:00,38.1,28.1,29.96,SW,234,4.0,6.0,67,0.00,,,0.01,0,Wunderground v.1.15,2013-10-22 00:31:00,
2013-10-21 19:37:00,38.1,28.5,29.96,SW,234,4.0,6.0,68,0.00,,,0.01,0,Wunderground v.1.15,2013-10-22 00:37:00,
2013-10-21 19:42:00,38.0,28.4,29.96,WSW,248,4.0,4.0,68,0.00,,,0.01,0,Wunderground v.1.15,2013-10-22 00:42:00,
2013-10-21 19:48:00,37.9,28.3,29.96,SW,223,3.0,5.0,68,0.00,,,0.01,0,Wunderground v.1.15,2013-10-22 00:48:00,
2013-10-21 19:54:00,38.1,28.1,29.96,WSW,245,5.0,8.0,67,0.00,,,0.01,0,Wunderground v.1.15,2013-10-22 00:54:00,
2013-10-21 19:59:00,38.3,27.9,29.96,WSW,246,7.0,9.0,66,0.00,,,0.01,0,Wunderground v.1.15,2013-10-22 00:59:00,
2013-10-21 20:05:00,38.3,27.6,29.96,WSW,250,7.0,8.0,65,0.00,,,0.01,0,Wunderground v.1.15,2013-10-22 01:05:00,
2013-10-21 20:10:00,38.3,27.2,29.96,SW,236,7.0,8.0,64,0.00,,,0.01,0,Wunderground v.1.15,2013-10-22 01:10:00,
2013-10-21 20:16:00,38.5,26.2,29.96,WSW,249,7.0,9.0,61,0.00,,,0.01,0,Wunderground v.1.15,2013-10-22 01:16:00,
2013-10-21 20:22:00,38.5,25.4,29.96,SW,234,7.0,9.0,59,0.00,,,0.01,0,Wunderground v.1.15,2013-10-22 01:22:00,
2013-10-21 20:27:00,38.5,26.2,29.96,WSW,257,7.0,9.0,61,0.00,,,0.01,0,Wunderground v.1.15,2013-10-22 01:27:00,
2013-10-21 20:33:00,38.6,25.5,29.96,WSW,238,8.0,8.0,59,0.00,,,0.01,0,Wunderground v.1.15,2013-10-22 01:33:00,
2013-10-21 20:38:00,38.7,26.0,29.96,WSW,254,7.0,9.0,60,0.00,,,0.01,0,Wunderground v.1.15,2013-10-22 01:38:00,
2013-10-21 20:44:00,38.7,25.6,29.96,West,269,6.0,8.0,59,0.00,,,0.01,0,Wunderground v.1.15,2013-10-22 01:44:00,
2013-10-21 20:49:00,38.6,25.1,29.96,WSW,258,7.0,13.0,58,0.00,,,0.01,0,Wunderground v.1.15,2013-10-22 01:49:00,
2013-10-21 20:54:00,38.7,24.3,29.96,West,270,8.0,12.0,56,0.00,,,0.01,0,Wunderground v.1.15,2013-10-22 01:54:00,
2013-10-21 21:00:00,38.7,24.3,29.96,West,262,10.0,12.0,56,0.00,,,0.01,0,Wunderground v.1.15,2013-10-22 02:00:00,
2013-10-21 21:01:00,38.7,24.3,29.96,West,273,10.0,10.0,56,0.00,,,0.01,0,Wunderground v.1.15,2013-10-22 02:01:00,
2013-10-21 21:07:00,38.8,24.4,29.96,WSW,255,9.0,12.0,56,0.00,,,0.01,0,Wunderground v.1.15,2013-10-22 02:07:00,
2013-10-21 21:12:00,38.7,23.9,29.96,West,278,9.0,13.0,55,0.00,,,0.01,0,Wunderground v.1.15,2013-10-22 02:12:00,
2013-10-21 21:18:00,38.7,24.3,29.96,West,271,10.0,13.0,56,0.00,,,0.01,0,Wunderground v.1.15,2013-10-22 02:18:00,
2013-10-21 21:24:00,38.4,24.5,29.96,West,266,8.0,9.0,57,0.00,,,0.01,0,Wunderground v.1.15,2013-10-22 02:24:00,
2013-10-21 21:29:00,38.3,24.8,29.96,West,280,7.0,9.0,58,0.00,,,0.01,0,Wunderground v.1.15,2013-10-22 02:29:00,
2013-10-21 21:35:00,38.1,25.0,29.96,WSW,252,6.0,8.0,59,0.00,,,0.01,0,Wunderground v.1.15,2013-10-22 02:35:00,
2013-10-21 21:40:00,38.0,25.7,29.96,West,264,6.0,8.0,61,0.00,,,0.01,0,Wunderground v.1.15,2013-10-22 02:40:00,
2013-10-21 21:46:00,37.6,25.4,29.96,West,269,6.0,8.0,61,0.00,,,0.01,0,Wunderground v.1.15,2013-10-22 02:46:00,
2013-10-21 21:52:00,37.4,24.8,29.96,West,263,6.0,7.0,60,0.00,,,0.01,0,Wunderground v.1.15,2013-10-22 02:52:00,
2013-10-21 21:58:00,37.1,24.9,29.96,WSW,258,6.0,7.0,61,0.00,,,0.01,0,Wunderground v.1.15,2013-10-22 02:58:00,
2013-10-21 22:04:00,36.9,25.9,29.96,WSW,254,5.0,6.0,64,0.00,,,0.01,0,Wunderground v.1.15,2013-10-22 03:04:00,
2013-10-21 22:09:00,36.6,25.2,29.96,WSW,242,6.0,8.0,63,0.00,,,0.01,0,Wunderground v.1.15,2013-10-22 03:09:00,
2013-10-21 22:15:00,36.4,25.4,29.96,WSW,249,5.0,5.0,64,0.00,,,0.01,0,Wunderground v.1.15,2013-10-22 03:15:00,
2013-10-21 22:21:00,36.1,25.5,29.96,WSW,247,4.0,5.0,65,0.00,,,0.01,0,Wunderground v.1.15,2013-10-22 03:21:00,
2013-10-21 22:27:00,35.9,26.0,29.96,WSW,242,4.0,5.0,67,0.00,,,0.01,0,Wunderground v.1.15,2013-10-22 03:27:00,
2013-10-21 22:33:00,35.5,25.6,29.96,WSW,242,4.0,5.0,67,0.00,,,0.01,0,Wunderground v.1.15,2013-10-22 03:33:00,
2013-10-21 22:38:00,35.3,25.8,29.96,WSW,237,5.0,5.0,68,0.00,,,0.01,0,Wunderground v.1.15,2013-10-22 03:38:00,
2013-10-21 22:44:00,35.1,26.6,29.96,SW,236,5.0,5.0,71,0.00,,,0.01,0,Wunderground v.1.15,2013-10-22 03:44:00,
2013-10-21 22:50:00,35.0,26.9,29.96,SW,233,5.0,5.0,72,0.00,,,0.01,0,Wunderground v.1.15,2013-10-22 03:50:00,
2013-10-21 22:56:00,34.7,26.6,29.96,WSW,243,5.0,6.0,72,0.00,,,0.01,0,Wunderground v.1.15,2013-10-22 03:56:00,
2013-10-21 23:01:00,34.4,26.0,29.96,WSW,246,5.0,5.0,71,0.00,,,0.01,0,Wunderground v.1.15,2013-10-22 04:01:00,
2013-10-21 23:02:00,34.4,26.0,29.96,WSW,246,5.0,5.0,71,0.00,,,0.01,0,Wunderground v.1.15,2013-10-22 04:02:00,
2013-10-21 23:03:00,34.4,26.3,29.96,WSW,244,5.0,5.0,72,0.00,,,0.01,0,Wunderground v.1.15,2013-10-22 04:03:00,
2013-10-21 23:04:00,34.4,26.0,29.96,WSW,249,5.0,5.0,71,0.00,,,0.01,0,Wunderground v.1.15,2013-10-22 04:04:00,
2013-10-21 23:09:00,34.4,26.0,29.96,WSW,252,5.0,7.0,71,0.00,,,0.01,0,Wunderground v.1.15,2013-10-22 04:09:00,
2013-10-21 23:15:00,34.2,25.8,29.96,WSW,248,5.0,5.0,71,0.00,,,0.01,0,Wunderground v.1.15,2013-10-22 04:15:00,
2013-10-21 23:21:00,34.0,25.9,29.96,WSW,255,5.0,5.0,72,0.00,,,0.01,0,Wunderground v.1.15,2013-10-22 04:21:00,
2013-10-21 23:25:00,34.0,26.3,29.96,WSW,243,5.0,6.0,73,0.00,,,0.01,0,Wunderground v.1.15,2013-10-22 04:25:00,
2013-10-21 23:31:00,33.9,26.8,29.96,WSW,239,6.0,6.0,75,0.00,,,0.01,0,Wunderground v.1.15,2013-10-22 04:31:00,
2013-10-21 23:37:00,33.7,26.3,29.96,SW,231,6.0,7.0,74,0.00,,,0.01,0,Wunderground v.1.15,2013-10-22 04:37:00,
2013-10-21 23:43:00,33.5,26.4,29.96,SW,234,6.0,7.0,75,0.00,,,0.01,0,Wunderground v.1.15,2013-10-22 04:43:00,
2013-10-21 23:48:00,33.4,26.6,29.96,WSW,240,6.0,7.0,76,0.00,,,0.01,0,Wunderground v.1.15,2013-10-22 04:48:00,
2013-10-21 23:53:00,33.1,26.4,29.96,WSW,254,6.0,7.0,76,0.00,,,0.01,0,Wunderground v.1.15,2013-10-22 04:53:00,
2013-10-21 23:59:00,33.2,26.5,29.96,West,264,6.0,7.0,76,0.00,,,0.01,0,Wunderground v.1.15,2013-10-22 04:59:00,